Regional Weather Roundup
Issued by NWS

Home | Current Version | Previous Version | Text Only | Print | Product List | Glossary Off
Versions: 1 2 3 4 5 6 7 8 9 10 11 12 13 14 15 16 17 18 19 20 21 22 23 24 25 26 27 28 29 30 31 32 33 34 35 36 37 38 39 40 41 42 43 44 45 46 47 48 49 50

000
ASUS43 KLMK 201310
RWRKY
KENTUCKY REGIONAL WEATHER ROUNDUP
NATIONAL WEATHER SERVICE LOUISVILLE KY
900 AM EDT FRI OCT 20 2017

NOTE "FAIR" INDICATES FEW OR NO CLOUDS BELOW 12,000 FEET
WITH NO SIGNIFICANT WEATHER AND/OR OBSTRUCTIONS TO VISIBILITY.

KYZ001>023-026-027-061>063-070>075-201400-
WESTERN AND SOUTH CENTRAL KENTUCKY

CITY           SKY/WX    TMP DP  RH WIND       PRES   REMARKS
PADUCAH        CLEAR     48  45  89 CALM      30.25R
HENDERSON      CLEAR     47  47 100 CALM      30.28S
OWENSBORO      SUNNY     51  49  92 CALM      30.30R
HOPKINSVILLE   SUNNY     49  48  96 E5        30.28F
BOWLING GREEN  SUNNY     47  46  97 CALM      30.31R
GLASGOW        SUNNY    N/A N/A N/A CALM      30.32R
$$

KYZ024-025-028>034-038-045-046-053-201400-
NORTH CENTRAL KENTUCKY

CITY           SKY/WX    TMP DP  RH WIND       PRES   REMARKS
LOUISVILLE/SDF MOSUNNY   52  50  93 SE5       30.31R
LOUISVILLE/LOU SUNNY     52  51  97 CALM      30.31R
FORT KNOX      SUNNY     50  50 100 CALM      30.29R
$$

KYZ035>037-039>044-047>052-055>060-089>105-201400-
NORTHEAST KENTUCKY

CITY           SKY/WX    TMP DP  RH WIND       PRES   REMARKS
LEXINGTON      SUNNY     51  47  86 SE3       30.32R
COVINGTON      MOSUNNY   52  51  97 CALM      30.30R
FRANKFORT      SUNNY     50  45  83 CALM      30.31R
$$

KYZ054-064>069-076>088-106>120-201400-
SOUTHEAST KENTUCKY

CITY           SKY/WX    TMP DP  RH WIND       PRES   REMARKS
JACKSON        SUNNY     51  47  86 CALM      30.34R
LONDON         SUNNY     46  43  89 CALM      30.34R
SOMERSET       SUNNY     45  45 100 CALM      30.35R
MIDDLESBORO    FOG       43  43 100 CALM      30.38R VSB 1/4
MONTICELLO     SUNNY     46  45  96 VRB6      30.35R
$$





USA.gov is the U.S. government's official web portal to all federal, state and local government web resources and services.